Tracking 25612 objects as of 20-May-2022
HD Live streaming from Space Station
objects crossing your sky now

YZ-1 R/B

Track YZ-1 R/B now!


NORAD ID: 43625
Int'l Code: 2018-072D
Perigee: 22,171.4 km
Apogee: 22,718.4 km
Inclination: 55.3 °
Period: 811.3 minutes
Semi major axis: 28815 km
RCS: Unknown
Launch date: September 19, 2018
Source: People's Republic of China (PRC)
Launch site: Xichang Space Center, China (XSC)

Note: This is a ROCKET BODY
aabbcc
Your satellite tracking list
Your tracking list is empty




NASA's NSSDC Master Catalog

Two Line Element Set (TLE):
1 43625U 18072D   22135.95561016  .00000053  00000-0  00000-0 0  9992
2 43625  55.2910 116.6963 0094910  35.9567 324.6518  1.77482329 23685
Source of the keplerian elements: AFSPC